Regional Weather Roundup
Issued by NWS

Home | Current Version | Previous Version | Graphics & Text | Print | Product List | Glossary On
Versions: 1 2 3 4 5 6 7 8 9 10 11 12 13 14 15 16 17 18 19 20 21 22 23 24 25 26 27 28 29 30 31 32 33 34 35 36 37 38 39 40 41 42 43 44 45 46 47 48 49 50
000
ASUS43 KMPX 210601
RWRMN
WEATHER ROUNDUP FOR MINNESOTA
NATIONAL WEATHER SERVICE TWIN CITIES/CHANHASSEN MN
1200 AM CST TUE NOV 21 2017


NOTE: "FAIR" INDICATES FEW OR NO CLOUDS BELOW 12,000 FEET WITH NO
SIGNIFICANT WEATHER AND/OR OBSTRUCTIONS TO VISIBILITY. N/A MEANS
CURRENT SKY AND/OR WEATHER CONDITIONS ARE NOT AVAILABLE.

MNZ060>063-068>070-210700-
   Twin Cities Metro

CITY           SKY/WX    TMP DP  RH WIND       PRES   REMARKS
TWIN CITIES    PTCLDY    42  27  55 NW16      29.54R
6HR MIN TEMP:  42; 6HR MAX TEMP:  47;

ST PAUL        CLOUDY    42  26  53 W23       29.54R
CRYSTAL        CLOUDY    40  25  55 W14G25    29.53R
BLAINE         CLOUDY    41  28  60 W16       29.53R
LAKEVILLE      CLEAR     37  28  70 W14G20    29.55R
EDEN PRAIRIE   CLEAR     42  26  53 W16G28    29.54R
6HR MIN TEMP:  42; 6HR MAX TEMP:  46;

SOUTH ST PAUL  CLEAR     43  25  48 W13       29.53R
LAKE ELMO      FAIR      41  30  65 W14G20    29.52R
$$
MNZ001>005-007-008-013>017-022>024-027-028-210700-
   Northwest Minnesota

CITY           SKY/WX    TMP DP  RH WIND       PRES   REMARKS
BEMIDJI        LGT SNOW  23  18  81 W21G31    29.50R WCI   8
HALLOCK        LGT SNOW  18  12  79 NW30G38   29.61R WCI  -2
ROSEAU         FLURRIES  19  12  73 W17G25    29.50R WCI   4
WARROAD        FLURRIES  19  12  73 W21G30    29.47R WCI   3
CROOKSTON      CLOUDY    23  12  63 NW29G35   29.65R WCI   6
FOSSTON        FLURRIES  19  12  73 W25G32    29.58R WCI   2
DETROIT LAKES  CLOUDY    25  16  68 NW22G39   29.63R WCI  10
MOORHEAD       CLOUDY    25  16  68 NW18      29.68R WCI  11
PARK RAPIDS    CLOUDY    25  16  68 NW31G44   29.53R WCI   8
MAHNOMEN       CLOUDY    23  14  68 NW29G36   29.58R WCI   5
$$
MNZ006-009>011-018-025>026-210700-
   North Central Minnesota

CITY           SKY/WX    TMP DP  RH WIND       PRES   REMARKS
BAUDETTE       FLURRIES  22  15  75 NW20G37   29.41R WCI   7
FLAG ISLAND    FLURRIES  19  16  86 W24G35    29.40R WCI   2
INTL FALLS     LGT SNOW  24  15  68 W16G32    29.35R WCI  11
6HR MIN TEMP:  24; 6HR MAX TEMP:  40; 6HR PCP: TRACE;

WASKISH        FLURRIES  23  16  74 W24G31    29.46R WCI   7
BIG FORK       CLOUDY    27  19  74 NW10G21   29.41R WCI  17
LONGVILLE      CLOUDY    28  18  64 W15G21    29.47S WCI  17
GRAND RAPIDS   CLOUDY    29  20  69 NW25G35   29.43R WCI  14
CRANE LAKE     CLOUDY    27  18  69 W8        29.34R WCI  18
ORR            CLOUDY    25  14  63 W21G31    29.33R WCI  10
COOK           CLOUDY    27  19  74 W24G33    29.36R WCI  12
WALKER         CLOUDY    26  17  68 W21G33    29.49R WCI  11
$$
MNZ012-019>021-037-210700-
   Northeast Minnesota

CITY           SKY/WX    TMP DP  RH WIND       PRES   REMARKS
DULUTH         PTCLDY    35  24  64 W24G40    29.33R WCI  23
6HR MIN TEMP:  33; 6HR MAX TEMP:  38;

ELY            CLOUDY    30  25  80 W25G37    29.27R WCI  16
HIBBING        CLOUDY    30  22  72 NW25G38   29.36R WCI  16
EVELETH        MOCLDY    32  23  69 NW20G31   29.35R WCI  20
DULUTH HARBOR  CLOUDY    39  27  60 W29       29.36R
TWO HARBORS    MOCLDY    41  28  60 W16G31    29.28R
GRAND MARAIS     N/A     38  31  76 W10       29.19
G MARAIS ARPRT CLOUDY    34  25  69 W9G20     29.15S WCI  26
$$
MNZ029>031-032-039>041-046>048-054>057-064-210700-
   West Central Minnesota

CITY           SKY/WX    TMP DP  RH WIND       PRES   REMARKS
FERGUS FALLS   MOCLDY    27  18  69 NW28G37   29.67R WCI  11
WHEATON        CLOUDY    28  12  50 NW21G29   29.70R WCI  15
MORRIS         PTCLDY    32  16  51 NW24G32   29.64R WCI  19
ALEXANDRIA     CLOUDY    29  20  69 NW23G30   29.59R WCI  15
ELBOW LAKE     FAIR      28  17  64 NW26G36   29.65R WCI  13
WADENA         PTCLDY    27  19  74 NW22G31   29.55R WCI  12
GLENWOOD       CLOUDY    30  19  64 NW26G32   29.60R WCI  16
APPLETON       CLOUDY    36  12  38 NW20G31   29.66R
BENSON         PTCLDY    34  18  51 N16       29.66R WCI  23
ORTONVILLE     CLOUDY    34  14  44 MISG      29.69R
MADISON        CLOUDY    37  21  52 NW12G18   29.69R
WILLMAR        FAIR      34  23  64 W16G22    29.64R WCI  23
$$
MNZ033>034-036-042>043-049>051-058-059-210700-
   Central Minnesota

CITY           SKY/WX    TMP DP  RH WIND       PRES   REMARKS
ST CLOUD       CLOUDY    36  27  69 W18G25    29.54R
6HR MIN TEMP:  33; 6HR MAX TEMP:  45;

SAUK CENTRE    FAIR      31  20  63 W20G30    29.58R WCI  19
PAYNESVILLE    CLOUDY    33  23  67 W18G26    29.60R WCI  22
AITKIN         CLOUDY    30  18  59 W15G29    29.46R WCI  19
PINE RIVER     PTCLDY    28  18  64 W17G30    29.54R WCI  16
BRAINERD       CLOUDY    34  21  59 W17G25    29.50R WCI  23
STAPLES        CLOUDY    28  18  64 NW20G32   29.54R WCI  15
LONG PRAIRIE   FAIR      32  21  64 W21G26    29.56R WCI  20
LITTLE FALLS   CLOUDY    32  18  55 W13G28    29.54R WCI  22
LITCHFIELD     CLEAR     37  23  56 W16G23    29.60R
BUFFALO        CLEAR     38  25  58 W20G26    29.58R
MAPLE LAKE     CLOUDY    38  26  63 W13G24    29.58R
HUTCHINSON     CLEAR     36  27  70 W15       29.61R
$$
MNZ037-044-045-052-053-210700-
   East Central Minnesota

CITY           SKY/WX    TMP DP  RH WIND       PRES   REMARKS
PRINCETON      CLOUDY    37  28  70 W17G23    29.53R
MORA           CLOUDY    36  25  64 W20G29    29.50R
CAMBRIDGE      CLOUDY    41  28  60 W13G21    29.52R
RUSH CITY      CLOUDY    38  28  68 W9G17     29.49R
MOOSE LAKE     CLOUDY    36  25  64 W14G26    29.41R
HINCKLEY       FAIR      37  28  70 W14G22    29.47R
CLOQUET        PTCLDY    36  23  60 W21G29    29.37R
MCGREGOR       CLOUDY    32  23  69 W15G23    29.44R WCI  22
$$
MNZ071>073-080-081-089-090-097-098-210700-
   Southwest Minnesota

CITY           SKY/WX    TMP DP  RH WIND       PRES   REMARKS
MONTEVIDEO     CLOUDY    36  16  44 N21G28    29.67R
GRANITE FALLS  CLEAR     37  20  52 W20G25    29.70R
CANBY          MOCLDY    37  19  48 W15G23    29.72R
MARSHALL       CLOUDY    37  18  46 NW15      29.70R
REDWOOD FALLS  PTCLDY    37  20  50 W15       29.66R
OLIVIA         CLEAR     34  23  64 NW15      29.65R WCI  24
PIPESTONE      PTCLDY    36  21  55 N13G22    29.71R
WINDOM         CLEAR     37  19  48 NW17G23   29.67R
WORTHINGTON    PTCLDY    38  24  57 NW17      29.69R
JACKSON        CLEAR     37  27  65 NW15G22   29.67R
SLAYTON        PTCLDY    38  25  60 NW13G21   29.69R
$$
MNZ065>067-074>077-082>085-091>093-210700-
   South Central Minnesota

CITY           SKY/WX    TMP DP  RH WIND       PRES   REMARKS
MANKATO        CLEAR     39  25  57 NW18      29.62R
NEW ULM        CLEAR     39  21  48 NW21G28   29.63R
ST JAMES       CLEAR     39  28  65 W18G25    29.66R
FAIRMONT       CLEAR     41  27  57 NW17G28   29.65R
GLENCOE        CLEAR     39  28  64 W15G23    29.59R
FARIBAULT      CLEAR     39  28  65 W14G21    29.57R
OWATONNA       CLEAR     39  28  65 W14G20    29.58R
WASECA         CLEAR     39  28  65 NW18      29.61R
ALBERT LEA     CLEAR     39  25  56 W8        29.60R
$$
MNZ078>079-086>088-094>096-210700-
   Southeast Minnesota

CITY           SKY/WX    TMP DP  RH WIND       PRES   REMARKS
ROCHESTER      CLEAR     37  28  70 W12       29.56R
6HR MIN TEMP:  37; 6HR MAX TEMP:  46;

RED WING       CLEAR     41  25  52 W9        29.52R
STANTON        CLEAR     41  29  62 W15G23    29.54R
DODGE CENTER   CLEAR     37  27  65 W12       29.56R
WINONA         CLEAR     43  28  56 W7G16     29.54S
AUSTIN         CLEAR     37  27  65 W7        29.59R
PRESTON        CLEAR     38  28  65 W13G18    29.57R
$$
ABBREVIATIONS USED IN REMARKS
   TC - TEMPERATURES IN CELSIUS
  WCI - WIND CHILL INDEX
   HX - HEAT INDEX
  VSB - VISIBILITY
$$



USA.gov is the U.S. government's official web portal to all federal, state and local government web resources and services.